Wind_Speed
16 16 16 16 16 17 18 18 14 9 7 7 4 7 7 3 2 9 11 10 11 9 9 12 13 17 19 17 17 14 12 12 11 10 11 11 11 11 12 13 15 17 18 14 14 16 15 17 19 15 14 15 14 12 15 19 20 16 18 22 22 19 16 14 13 11 12 13 11 12 14 14 13 10 11 14 12 10 8 7 10 5 6 8 5 4 4
17 16 15 15 15 16 16 17 16 12 8 5 5 9 10 7 5 9 12 13 13 12 12 13 13 15 17 18 19 17 13 13 12 10 10 10 10 10 11 12 14 18 19 14 14 18 16 16 18 15 13 14 13 12 13 17 21 19 17 20 21 19 17 14 11 9 10 10 8 10 13 12 12 10 12 14 12 12 10 7 9 5 5 5 3 3 3
17 16 15 15 14 15 15 15 16 13 10 7 5 8 10 8 6 8 11 14 14 14 15 14 12 15 17 17 16 16 16 14 12 12 11 10 10 9 8 11 14 16 16 13 12 16 14 14 16 15 12 10 9 11 11 14 19 20 17 16 18 19 18 15 11 10 8 5 5 8 10 10 10 10 13 12 10 12 12 6 5 4 5 5 4 7 8
18 16 15 15 14 14 14 14 14 13 11 8 4 5 7 7 9 10 11 11 14 15 15 14 14 15 17 17 14 11 13 15 12 12 13 11 10 10 8 10 13 12 13 14 14 15 14 12 13 14 13 11 11 12 12 12 16 19 18 16 16 18 19 17 15 12 6 2 6 11 13 11 8 8 14 14 12 13 14 9 2 1 3 4 6 9 12
18 17 16 15 14 13 12 13 13 12 11 9 3 3 4 4 10 15 13 13 15 15 14 14 13 11 11 15 15 11 10 12 13 12 13 11 10 11 10 10 13 13 12 13 13 14 16 14 12 12 15 14 12 12 12 14 19 20 19 18 15 15 17 16 14 12 7 2 3 8 12 12 10 11 15 14 13 13 13 10 4 4 5 3 8 9 11
18 17 16 15 15 14 12 12 13 11 10 9 5 5 5 4 8 11 12 14 14 12 14 15 14 11 8 10 14 16 11 10 11 12 11 10 11 12 11 10 12 12 12 12 12 12 12 14 13 11 13 12 8 9 11 14 21 21 18 16 14 13 13 10 8 10 10 6 5 9 13 14 15 17 17 14 14 14 12 10 6 5 6 2 9 7 7
19 18 17 16 15 14 12 11 12 11 10 9 8 7 9 11 10 8 10 14 12 11 16 15 12 12 10 8 10 13 12 11 12 12 10 10 11 11 10 12 13 11 11 12 13 11 7 8 10 10 10 9 6 9 11 12 17 21 18 15 14 16 14 9 7 9 8 7 8 10 11 12 15 19 17 13 14 14 11 9 5 5 7 2 4 4 7
21 19 18 17 15 14 12 11 11 11 10 8 9 8 9 12 14 14 14 15 13 12 14 13 11 12 12 11 11 9 9 11 12 11 10 10 10 11 9 12 13 11 11 10 10 12 9 5 5 8 10 8 7 8 11 12 15 18 18 16 16 17 13 7 9 11 9 7 8 9 10 11 15 18 17 14 13 12 11 9 7 7 7 4 3 4 10
22 20 18 17 16 15 13 11 10 11 10 9 8 9 9 10 11 14 15 15 15 13 11 9 12 13 11 10 14 11 6 6 8 8 10 8 8 8 7 8 7 9 9 5 3 8 13 10 6 6 11 8 7 7 9 10 13 15 17 17 16 18 13 6 8 12 11 8 8 10 12 14 15 16 16 14 12 11 10 8 6 5 4 3 3 4 11
23 21 19 18 17 16 15 12 10 10 11 10 9 9 10 10 10 11 13 15 14 11 9 8 12 12 8 7 10 12 9 4 5 8 8 7 7 3 2 4 9 10 8 6 6 5 9 10 7 6 11 9 7 9 9 9 12 13 15 17 13 13 13 10 9 11 10 7 5 9 12 13 12 12 13 11 7 6 8 7 5 6 6 6 2 3 9
24 22 20 19 17 16 16 13 11 10 10 11 10 10 10 10 10 9 11 14 11 7 8 11 11 9 9 10 9 10 12 9 9 8 7 8 8 3 2 6 8 7 7 8 6 3 2 5 7 6 10 11 9 10 9 8 11 10 12 17 13 9 12 12 10 10 11 8 8 11 13 8 3 4 8 7 6 7 8 8 7 7 4 2 2 5 6
25 23 22 20 18 17 16 15 12 10 10 11 11 10 9 9 10 8 9 13 11 6 7 9 8 6 10 11 7 5 9 10 9 8 5 3 5 1 2 10 6 1 6 5 1 3 3 5 7 6 8 10 10 12 11 10 13 11 10 13 13 10 11 12 12 11 12 12 12 13 10 3 2 1 5 5 5 7 9 9 10 9 6 4 1 5 6
26 25 23 21 20 18 17 16 14 11 10 10 11 11 9 8 9 8 9 12 11 8 6 5 5 5 4 4 6 7 9 10 9 10 5 5 4 3 4 7 6 4 6 4 5 5 3 4 6 6 6 7 8 11 12 12 14 14 12 12 14 14 12 11 13 12 12 13 11 9 4 2 2 5 7 6 4 7 10 10 10 10 9 5 3 5 7
27 26 24 22 21 19 18 17 16 13 11 10 11 11 10 8 8 8 9 11 10 11 10 4 5 7 6 8 9 9 10 12 11 12 8 7 8 5 2 1 3 4 4 5 7 6 4 3 5 6 5 6 8 9 11 13 13 14 13 13 15 16 15 13 12 11 13 16 13 10 8 7 6 10 12 10 7 6 8 10 11 10 6 4 3 5 7
29 27 25 24 22 20 19 18 17 15 13 11 11 11 10 9 8 8 9 10 9 9 9 4 6 9 9 10 9 7 8 10 9 12 13 9 10 14 10 3 2 4 5 4 5 5 5 3 2 6 8 8 9 8 7 10 11 11 12 13 13 15 16 15 12 10 14 17 12 9 8 7 10 14 12 8 7 5 6 10 11 5 1 2 3 5 5
31 28 26 25 23 22 20 19 18 17 14 12 12 11 11 9 8 8 9 9 7 6 9 3 8 10 9 8 8 6 6 7 7 7 11 9 8 13 14 8 4 6 5 4 3 2 4 4 2 3 9 10 9 7 6 8 9 9 10 12 13 14 16 15 14 11 13 15 13 10 8 6 6 7 6 5 6 5 6 11 8 6 6 2 2 5 5
32 30 27 26 24 23 22 20 19 18 16 14 12 12 12 10 8 9 9 9 9 10 12 6 9 7 6 7 9 7 3 5 7 5 7 7 7 8 7 6 3 7 7 8 7 4 4 5 4 6 11 10 6 7 9 10 11 11 9 10 11 14 16 16 17 16 15 16 16 12 8 5 3 2 3 5 5 5 9 10 6 11 10 5 4 5 5
33 31 29 27 25 24 23 21 20 20 18 16 14 13 13 11 9 9 9 10 13 11 12 12 11 4 4 7 8 6 5 5 6 6 6 8 9 8 5 2 6 10 10 9 9 7 7 7 8 11 14 10 7 7 8 10 11 12 11 11 11 13 16 16 17 18 16 17 19 14 6 5 4 3 4 6 7 8 10 6 6 10 11 8 5 6 7
33 32 31 29 27 25 25 23 21 20 20 18 16 14 13 12 10 10 10 12 14 13 13 16 13 6 7 8 5 4 6 7 8 7 6 7 9 10 10 9 8 9 9 7 6 8 10 12 12 13 13 11 10 10 8 8 9 10 11 12 10 10 13 14 16 16 15 14 17 14 5 8 7 6 6 7 7 8 8 6 4 6 7 5 5 8 9
31 32 31 31 29 27 26 25 23 21 20 20 18 15 15 13 11 11 11 12 15 14 11 12 12 12 16 15 8 5 6 5 6 6 6 7 6 4 7 10 7 6 7 8 8 8 10 11 11 12 12 10 12 12 10 9 11 11 12 15 15 13 11 10 11 12 12 11 11 8 3 4 5 6 5 5 6 6 7 8 8 7 6 7 9 12 10
27 29 30 31 31 29 28 26 24 22 21 21 19 17 16 14 12 12 12 13 15 14 12 13 16 16 17 16 12 10 9 8 9 10 10 9 4 1 8 11 8 6 4 6 9 8 6 4 5 6 6 5 7 8 9 11 13 13 14 16 16 15 13 11 11 10 8 6 4 3 2 1 5 9 8 6 7 6 4 5 8 10 10 11 12 11 9
25 27 28 29 30 30 29 28 26 24 22 22 21 19 18 15 13 12 13 13 15 15 14 15 16 13 12 14 15 13 10 10 12 12 12 11 7 3 7 9 6 7 5 5 7 6 5 4 4 3 2 4 5 5 6 9 11 12 13 13 11 12 14 15 15 12 8 6 6 4 4 6 8 10 9 8 7 4 2 5 9 11 10 11 12 12 10
26 27 27 26 26 28 30 29 27 25 23 23 22 20 18 16 14 13 13 13 15 15 14 14 13 9 9 11 12 13 12 12 11 10 10 11 10 6 4 5 6 6 6 8 9 5 4 5 6 4 4 6 6 5 5 7 8 8 8 9 9 10 11 12 15 15 11 8 8 6 5 7 8 7 5 3 2 1 5 10 11 10 9 9 11 12 13
28 28 28 26 25 26 27 28 28 26 24 24 23 21 19 17 15 14 13 13 14 14 13 13 10 5 5 5 8 12 12 11 12 12 11 11 10 8 5 6 8 8 7 10 10 7 5 5 5 5 5 5 6 6 5 6 6 4 4 7 10 9 8 8 11 12 10 8 9 8 7 7 6 6 5 4 5 9 12 13 10 8 9 10 11 12 13
28 28 28 27 26 25 26 27 28 27 26 25 24 22 20 18 16 15 13 12 13 12 11 12 11 6 5 7 7 8 8 9 13 15 13 11 12 13 11 10 11 12 10 10 8 6 6 6 6 8 8 7 8 7 6 6 6 4 5 8 8 7 7 7 10 13 11 9 9 9 9 9 8 7 8 9 13 15 14 12 10 8 9 10 10 11 12
27 27 27 27 27 27 26 25 27 28 28 27 25 23 20 18 17 16 14 13 12 12 12 12 11 8 6 8 8 7 9 14 16 16 16 15 15 15 14 13 13 13 11 10 8 7 7 7 7 8 9 9 9 7 6 8 8 8 10 8 6 6 8 8 11 14 14 12 8 7 10 10 8 8 9 11 12 13 12 10 10 10 10 10 10 10 10
28 27 28 27 26 26 26 26 26 27 28 27 26 24 21 19 18 16 15 14 12 12 13 14 15 15 12 11 12 13 15 16 15 15 16 17 16 15 14 14 14 14 12 10 9 8 8 10 11 10 10 11 12 10 9 10 10 11 12 11 9 10 10 8 10 12 12 14 12 9 9 8 8 9 11 11 10 10 10 10 11 11 11 11 11 10 9
29 28 29 28 26 25 26 26 26 27 28 28 26 24 21 19 18 17 16 15 14 14 14 14 17 18 14 9 8 11 13 13 13 13 13 14 15 15 15 15 17 16 13 11 10 10 10 11 11 11 10 12 13 11 9 9 9 12 13 11 11 11 9 9 13 13 10 11 12 11 10 10 13 13 13 11 9 9 9 9 11 12 12 12 12 11 10
30 30 30 29 27 25 25 25 25 26 28 28 27 25 22 20 20 19 17 16 16 16 15 15 15 16 14 11 10 9 9 10 11 11 11 12 13 14 14 16 18 17 15 12 12 12 13 13 13 12 13 15 15 13 12 11 12 14 12 8 7 7 6 7 11 11 9 9 9 9 9 10 13 14 14 11 9 7 5 7 11 13 13 11 10 10 9
30 30 30 29 28 25 24 24 23 25 28 29 28 26 23 22 22 21 18 16 16 16 16 16 16 15 15 15 13 8 7 9 11 11 11 12 12 12 13 15 16 16 15 14 13 13 13 13 13 12 13 16 15 12 13 14 14 14 13 11 11 11 9 9 10 9 7 10 12 9 7 9 11 12 12 11 9 5 6 9 12 14 12 7 5 9 10
29 29 29 28 28 26 25 23 22 23 26 29 29 27 25 23 21 19 17 17 17 15 15 16 16 15 14 13 12 9 9 9 11 11 11 12 13 13 13 13 13 14 13 12 13 14 13 13 14 12 11 14 14 11 12 15 15 14 13 13 15 14 13 13 13 7 5 10 11 7 6 11 13 12 12 10 8 6 10 13 13 12 11 9 8 10 11
27 28 28 27 27 27 26 24 22 22 24 28 29 27 26 23 20 17 18 19 17 16 15 15 13 12 11 8 9 9 9 9 10 11 11 12 13 13 13 14 13 13 13 12 12 13 12 13 14 12 13 16 16 13 13 14 15 15 14 14 15 15 15 15 12 7 8 10 9 6 9 13 12 12 13 10 7 9 11 14 13 10 10 10 8 8 10
26 26 26 26 26 28 28 25 22 20 23 26 27 26 25 24 21 18 17 18 17 16 16 15 13 12 10 7 6 9 10 10 11 11 11 11 12 12 12 13 13 12 13 14 13 13 12 12 12 12 16 18 17 13 13 14 14 14 13 15 17 17 16 16 13 9 9 10 7 8 12 13 12 13 15 13 10 10 10 11 11 10 9 8 5 9 15
24 24 24 24 25 27 28 26 22 19 21 24 26 27 27 26 23 20 17 16 16 16 16 16 15 14 12 8 8 10 11 11 11 12 12 12 11 11 11 12 13 13 13 13 12 12 12 12 12 13 15 16 15 15 16 15 13 12 11 14 16 15 14 15 12 8 9 10 9 10 13 15 15 15 15 12 11 11 9 8 7 7 8 5 5 12 17
21 22 22 22 23 26 28 26 22 19 19 22 26 28 29 27 25 23 20 18 16 17 17 16 16 15 13 10 8 9 11 12 12 12 12 12 11 11 10 10 12 13 12 12 11 11 11 12 12 13 13 12 13 15 16 14 12 11 12 16 18 16 13 13 11 9 12 14 14 15 16 17 18 17 12 9 11 11 8 5 4 2 4 9 14 16 17
20 20 21 21 23 25 27 26 21 19 20 22 26 28 28 27 25 24 22 21 19 19 18 17 17 16 13 10 10 9 9 11 13 13 12 12 13 13 12 12 13 15 14 11 11 12 12 11 11 12 13 13 13 14 15 14 13 11 11 13 15 14 13 14 13 13 13 14 16 17 16 16 16 15 10 8 11 11 8 7 9 11 13 16 17 17 19
19 19 19 20 21 23 25 24 21 19 19 21 23 25 26 25 25 25 25 23 22 22 20 20 21 19 15 13 14 11 8 8 11 12 12 13 13 12 12 13 16 18 17 14 12 13 14 13 12 13 13 14 14 13 12 12 13 14 13 11 11 12 13 14 13 13 11 12 13 14 12 12 12 10 8 9 10 10 9 10 12 13 14 16 17 17 19
18 18 18 19 19 22 24 23 21 19 18 19 20 22 24 25 25 26 25 24 23 24 24 23 23 22 18 17 17 14 8 6 10 12 13 14 14 13 13 14 16 17 16 15 15 15 14 14 14 16 16 15 16 17 15 14 15 17 17 16 15 15 14 12 11 11 10 12 12 12 12 13 12 9 7 8 9 9 10 12 14 14 15 17 17 17 18
19 18 18 18 20 23 25 24 21 20 20 19 19 20 21 24 25 25 25 26 25 25 25 26 24 23 22 21 20 17 12 9 10 12 14 14 14 13 14 16 17 16 14 15 17 18 16 15 15 15 16 16 16 17 17 18 19 20 19 19 19 18 14 10 10 11 12 14 14 13 13 12 10 8 8 9 9 8 10 13 12 12 12 12 12 12 14
19 18 19 21 23 26 26 24 22 21 20 19 19 18 18 22 25 24 22 23 25 25 26 27 24 22 24 24 21 17 15 13 11 11 12 12 13 13 14 16 17 15 13 14 15 15 15 16 15 15 15 16 16 16 15 15 17 18 19 20 19 16 12 11 12 13 14 14 12 12 11 10 9 8 8 8 7 6 7 9 10 11 12 11 8 8 10
20 22 23 25 25 25 24 22 21 21 20 18 19 20 18 19 22 22 19 20 23 24 25 25 24 22 24 25 23 19 17 17 14 10 9 11 14 14 13 14 15 13 12 14 14 13 13 16 16 15 16 18 18 19 19 18 16 15 18 20 17 13 12 13 13 12 12 11 9 9 9 7 7 7 7 7 7 8 9 11 12 12 12 12 9 7 8
22 23 22 21 20 21 23 22 20 20 20 17 18 21 21 18 19 22 23 22 20 19 20 22 24 22 21 22 22 20 18 17 16 13 11 13 15 13 11 12 13 13 13 15 15 13 13 15 16 16 19 20 20 19 19 18 18 18 18 19 16 14 13 13 13 11 11 10 9 9 8 6 6 7 7 8 10 11 11 12 13 11 11 11 10 7 7
19 19 18 18 19 21 23 23 21 21 20 19 18 21 22 19 18 20 23 23 20 17 17 19 21 20 18 18 18 18 17 17 16 14 12 13 15 14 12 13 15 15 15 16 15 14 14 15 15 16 18 20 19 17 15 15 18 20 20 18 15 14 14 14 13 11 10 10 9 7 6 5 6 8 8 10 12 12 11 12 13 12 11 10 9 8 7
20 20 20 20 21 22 22 22 23 22 21 21 22 23 23 21 19 19 21 22 21 18 17 16 17 18 19 18 18 17 18 19 18 15 13 12 13 13 12 12 14 15 15 15 15 16 16 15 15 17 20 19 18 18 15 14 16 21 21 18 16 16 16 15 13 11 11 10 8 7 7 7 7 8 9 10 11 11 11 12 12 12 11 10 9 8 8
21 22 23 22 23 24 23 22 24 25 22 21 22 23 21 20 19 17 17 18 18 18 19 19 19 18 17 17 17 17 17 17 18 17 14 12 12 13 12 11 12 14 13 13 14 16 17 16 16 20 24 22 20 20 19 15 16 21 22 19 17 17 17 14 12 12 11 10 9 8 8 8 8 8 10 11 11 12 13 12 11 11 11 10 9 9 8
22 24 24 22 24 27 25 20 21 25 24 22 22 22 19 17 17 17 15 14 14 15 17 20 21 20 19 17 16 15 15 15 15 15 14 13 13 14 13 12 12 12 11 13 15 16 15 15 17 21 23 20 18 20 19 16 16 21 24 25 21 18 17 15 13 13 12 10 9 9 8 9 8 9 11 12 12 12 12 11 10 10 10 9 9 9 8
23 24 24 21 23 27 27 21 20 23 22 19 18 19 17 15 16 16 13 13 15 16 16 17 19 20 20 19 17 14 13 14 13 13 13 13 13 13 12 12 13 13 13 15 16 15 14 15 19 22 21 19 18 20 20 17 15 19 23 26 23 18 16 15 14 13 12 11 10 9 9 9 9 10 12 13 13 13 12 11 10 9 9 8 8 7 7
24 24 24 22 21 25 26 23 20 20 19 15 14 16 16 15 15 14 12 13 18 20 19 19 20 19 18 19 18 15 14 14 14 14 13 13 12 12 12 12 13 15 15 16 16 16 17 19 21 21 18 16 16 18 18 16 14 17 21 24 22 17 15 15 14 13 13 11 10 9 9 9 9 10 11 12 13 13 12 11 9 8 7 6 5 5 6
25 25 25 22 19 20 23 23 20 18 18 15 13 14 16 16 14 13 12 14 17 19 20 21 23 21 17 18 18 16 15 17 16 13 13 14 14 13 12 12 13 15 14 15 17 19 19 19 19 17 16 15 15 15 14 14 13 16 20 24 22 17 15 14 13 13 12 11 10 10 10 9 10 11 11 12 11 9 9 10 9 8 6 6 6 6 6
26 25 24 22 18 17 20 21 18 16 16 14 12 14 16 16 16 16 16 15 14 13 15 19 20 17 14 15 15 14 15 18 16 13 13 16 16 14 14 14 14 13 12 14 17 18 18 17 16 14 14 14 14 13 14 14 13 16 20 25 23 17 14 15 14 13 12 11 10 10 9 10 11 11 11 10 9 9 10 11 11 9 8 7 7 7 6
26 25 23 21 19 17 18 18 17 15 13 13 13 14 14 14 14 16 17 16 13 11 11 14 15 13 12 14 14 12 12 15 16 15 15 16 15 14 15 14 12 12 14 16 17 16 14 13 14 13 12 12 13 14 14 13 14 17 21 22 19 15 14 15 13 12 12 11 10 9 9 9 10 10 9 8 8 9 8 8 9 10 9 8 6 5 5
26 25 24 23 21 19 19 19 18 16 14 13 13 14 15 14 13 15 18 18 16 14 11 11 12 13 14 15 14 11 10 11 13 16 17 15 13 13 13 13 13 15 17 15 13 12 12 12 13 14 14 13 13 13 13 13 15 19 21 18 15 13 14 14 13 13 12 10 8 8 8 8 8 8 7 8 9 9 7 6 7 8 7 5 5 4 3
Wind_Direction
305 309 314 319 323 326 329 327 320 303 287 287 248 192 194 186 269 282 281 280 281 267 235 231 232 231 232 233 239 249 258 255 250 252 251 243 235 231 231 237 236 236 241 237 213 204 206 217 221 215 211 217 223 210 195 205 214 212 210 210 216 227 241 259 251 220 221 231 234 243 248 269 280 255 253 265 260 269 290 302 289 292 52 39 48 81 193
299 304 309 314 320 325 327 328 325 316 309 298 224 201 208 214 240 272 288 291 273 249 237 234 234 234 235 242 247 250 254 253 249 251 247 237 228 223 228 234 226 229 244 245 215 204 203 210 222 221 214 222 221 196 187 205 211 211 213 206 207 216 222 239 262 254 233 222 219 235 242 257 267 263 259 254 259 277 280 299 311 321 29 25 87 113 201
294 298 304 309 315 322 325 327 326 321 320 316 259 222 221 233 258 254 267 287 275 247 239 244 259 260 250 254 258 248 241 243 251 260 252 239 231 225 221 217 209 218 238 241 213 207 210 209 220 232 230 218 200 184 194 210 209 210 215 207 206 217 222 223 237 254 247 229 259 274 278 277 266 279 286 265 257 272 271 294 347 330 339 7 109 142 168
289 292 298 302 307 318 323 322 324 323 318 317 304 254 226 235 275 260 239 258 264 252 244 252 276 276 262 267 270 255 247 243 245 257 252 241 232 228 223 211 210 219 232 231 214 205 209 211 218 232 228 204 186 189 202 211 212 212 214 216 213 217 228 227 226 245 258 227 263 277 289 288 255 269 295 284 266 262 262 268 280 250 325 45 104 140 155
284 286 291 297 299 310 320 317 319 322 316 315 310 264 241 251 287 276 245 227 235 246 247 250 269 273 267 272 262 249 262 257 246 246 243 239 231 226 227 217 215 220 225 233 225 204 200 207 218 229 226 214 194 190 200 211 218 218 215 223 226 222 231 228 217 227 232 203 238 249 264 267 244 261 289 287 276 270 268 273 273 288 313 106 139 163 171
278 281 285 290 292 301 314 315 313 315 316 312 291 255 245 254 283 279 258 234 228 253 268 263 265 264 263 274 255 240 245 253 251 248 241 240 233 224 228 224 215 213 218 228 227 217 211 211 212 221 229 228 204 194 210 214 216 220 216 217 225 230 236 231 217 222 223 230 239 232 251 254 241 260 284 286 279 272 264 268 263 280 306 151 159 186 182
272 275 280 283 286 293 304 312 310 309 314 311 295 265 241 238 238 235 248 246 235 262 282 278 275 273 274 276 243 228 240 258 255 246 244 245 231 220 226 228 218 211 215 219 218 228 244 225 219 227 229 236 222 203 211 209 207 214 217 214 218 229 238 235 225 230 229 244 256 243 249 250 244 260 274 269 271 274 271 281 277 271 298 278 160 122 118
266 269 273 277 280 285 293 307 308 303 307 307 295 282 263 251 240 231 243 249 240 253 273 279 279 279 284 270 230 216 254 256 232 230 263 270 232 212 225 235 226 209 204 206 214 229 238 240 271 252 223 239 264 221 203 201 198 203 213 218 216 222 235 229 216 238 249 248 262 254 243 248 257 266 268 261 266 273 274 285 283 271 288 286 217 121 113
261 263 267 270 275 278 283 297 305 302 301 297 288 284 283 275 257 249 252 252 250 253 258 276 283 276 279 262 231 222 237 233 223 252 281 272 219 209 236 239 205 182 189 189 184 210 211 218 293 271 212 234 278 231 209 215 203 196 209 219 212 211 223 226 219 237 239 223 250 267 255 251 256 264 272 268 261 261 265 280 296 285 276 269 259 158 139
257 259 261 264 268 274 277 283 295 302 301 297 294 289 288 286 275 267 262 255 258 262 251 268 287 278 277 281 249 226 213 235 296 286 269 236 210 215 273 195 147 137 147 136 114 132 185 216 271 262 219 242 264 227 233 241 211 198 209 214 204 201 215 228 233 240 241 225 236 265 264 260 259 273 290 281 260 273 275 271 300 305 270 262 293 135 165
254 255 257 259 262 267 272 276 283 293 295 294 292 287 288 294 287 276 267 257 259 272 266 271 285 274 252 261 258 220 213 247 274 260 252 235 217 228 258 183 136 116 138 135 126 109 160 229 259 254 232 245 249 234 250 246 215 212 220 216 211 212 223 232 238 244 252 240 210 225 248 257 255 312 321 301 284 307 300 284 302 322 310 293 104 145 191
251 252 252 253 256 260 265 270 275 284 291 293 293 290 290 297 296 287 268 255 249 256 275 281 281 248 224 233 246 216 220 252 253 236 267 263 196 91 218 195 175 197 202 177 307 299 293 256 249 249 241 242 243 240 246 238 223 228 232 217 210 208 215 228 238 244 255 253 226 223 243 253 163 280 323 313 299 311 308 297 299 304 302 305 175 171 188
247 249 249 249 251 254 259 264 267 274 285 290 294 295 290 291 299 295 273 260 250 241 264 312 299 262 238 253 267 253 248 261 241 213 241 282 244 44 63 187 210 259 241 264 295 260 252 263 247 243 244 248 257 249 241 235 227 225 227 220 214 213 217 231 239 241 259 264 240 226 274 344 173 234 276 276 283 318 313 299 298 301 292 276 238 184 171
243 246 246 246 247 249 253 258 260 265 272 281 289 290 290 287 288 290 278 267 254 235 233 276 302 286 307 304 278 260 256 261 243 216 230 273 248 237 22 66 211 234 253 300 290 248 230 249 252 264 266 256 263 257 244 240 229 222 228 228 223 226 232 239 242 237 250 257 238 227 268 287 252 252 264 257 253 301 313 299 298 303 289 234 187 155 156
240 242 243 244 245 246 249 252 255 259 263 271 281 282 287 286 276 280 276 266 264 247 229 254 311 301 302 295 282 283 280 275 259 229 231 249 238 232 247 292 307 274 273 294 294 270 254 236 268 310 298 274 263 255 248 253 241 227 235 239 232 229 230 236 244 237 242 252 247 232 242 250 251 258 263 261 255 266 293 294 290 286 232 199 187 177 180
237 239 240 242 242 242 246 248 250 254 256 263 274 275 280 281 271 273 271 262 260 222 188 206 314 311 305 289 269 267 282 300 307 252 231 238 242 233 227 221 259 287 278 266 267 255 240 211 147 304 286 280 277 257 245 263 256 235 240 249 243 234 229 235 244 241 242 253 257 247 230 215 230 251 263 274 262 243 269 282 264 185 155 161 196 199 203
235 236 238 240 240 240 242 244 247 250 250 254 264 271 275 276 271 266 261 259 253 211 187 223 297 317 331 301 267 253 283 322 318 286 245 238 243 239 208 178 256 279 262 265 269 247 239 238 214 248 262 264 271 258 247 256 252 238 246 266 263 251 242 238 241 244 244 247 251 252 243 237 247 242 257 265 242 223 257 267 215 175 178 182 176 194 209
234 235 236 237 238 239 240 241 244 247 248 250 254 263 269 269 270 265 251 253 255 223 199 228 250 265 335 302 275 272 300 311 292 270 254 242 242 249 235 225 307 282 247 253 267 247 240 248 240 249 257 255 260 269 264 261 254 246 254 269 276 272 262 250 248 255 255 250 256 259 228 197 225 201 190 228 233 237 247 233 173 187 209 219 228 224 214
235 234 235 235 236 237 238 239 241 243 246 248 249 257 264 263 265 264 251 250 254 235 217 230 238 254 286 274 271 298 296 292 282 262 247 243 243 246 243 248 281 270 238 242 268 253 249 254 250 250 255 259 266 266 260 262 263 259 258 258 260 268 272 266 259 264 274 279 279 275 216 173 199 203 194 216 233 243 243 222 198 213 215 200 194 203 209
237 236 236 235 234 235 235 236 238 240 243 246 246 252 260 260 259 262 255 249 251 244 231 229 229 233 238 232 223 239 246 254 267 250 236 242 241 245 260 258 247 233 241 251 249 250 258 256 248 247 252 268 274 261 252 262 269 268 265 262 253 245 257 276 271 269 289 313 317 307 264 184 179 173 184 224 241 252 258 254 253 242 208 187 194 206 217
237 236 236 235 233 233 234 234 235 237 241 243 243 247 255 256 256 260 258 252 251 248 234 227 231 237 238 234 233 234 224 219 234 237 238 246 243 311 309 288 245 210 249 260 242 254 273 244 236 252 253 267 277 267 263 271 272 270 267 265 257 246 245 262 275 281 294 310 319 307 263 189 153 159 174 212 235 253 266 250 251 249 232 229 234 233 222
236 235 235 234 232 231 232 232 232 234 238 241 241 242 249 254 255 257 257 254 253 248 238 240 248 254 250 243 240 240 232 226 233 238 241 240 229 238 302 295 243 212 246 247 233 266 296 255 245 259 225 239 260 255 259 271 278 277 267 259 257 251 243 245 255 268 281 281 281 268 197 185 189 191 200 217 233 253 243 212 235 252 250 253 263 263 254
233 234 234 233 232 231 231 231 231 232 235 239 240 239 243 249 253 254 255 255 254 248 241 244 251 263 271 264 253 248 245 237 232 231 230 228 217 207 257 265 216 212 262 249 223 237 290 271 257 250 246 269 273 246 237 270 290 292 272 263 266 256 246 251 257 261 265 267 268 256 198 192 211 212 208 227 247 207 198 214 235 257 267 274 280 278 277
230 234 234 232 231 231 230 230 229 229 232 237 238 237 239 244 249 250 251 255 255 250 245 241 236 251 295 277 241 242 248 246 238 228 221 221 214 198 214 242 219 211 251 250 225 218 251 263 259 256 260 273 270 254 247 261 279 289 273 281 285 262 238 247 256 255 251 237 224 208 180 177 207 212 188 174 186 190 205 226 250 270 277 284 286 282 284
229 233 234 233 231 230 230 230 228 227 230 234 236 235 236 239 245 246 247 251 251 248 245 234 216 214 258 253 244 262 268 249 239 233 223 219 214 202 206 227 222 215 233 242 224 219 246 260 263 265 268 269 260 260 270 273 279 290 280 284 291 271 239 237 246 249 244 224 212 216 215 210 213 210 188 184 199 211 225 250 271 280 284 288 287 287 291
227 230 233 233 231 229 229 231 229 226 227 230 233 233 233 235 241 243 243 246 245 242 242 229 201 189 228 240 234 243 240 232 236 238 231 226 224 218 220 232 231 229 240 248 240 241 256 264 264 261 267 274 269 264 272 278 281 284 278 276 278 274 269 260 250 249 245 235 228 241 242 229 208 197 201 205 216 231 250 269 279 286 292 294 294 297 298
225 227 230 232 231 228 227 230 230 226 225 227 230 231 230 231 236 239 241 241 239 235 234 225 209 204 216 227 226 228 234 239 244 243 237 236 237 234 233 237 238 237 245 252 252 255 259 261 264 262 261 268 274 274 271 271 271 269 267 265 264 272 279 263 237 235 244 247 240 229 225 207 177 195 227 235 237 249 263 273 284 297 304 305 308 309 300
225 227 229 231 230 226 225 229 231 228 224 225 227 228 227 228 231 236 238 238 236 234 232 230 226 226 231 252 261 249 245 248 248 242 238 239 241 239 238 238 238 240 246 252 253 251 252 256 262 266 261 258 262 266 268 268 267 263 262 264 265 265 266 253 240 239 250 258 246 230 218 185 165 188 220 231 238 255 268 277 287 300 310 312 309 305 302
227 227 228 229 228 224 222 226 231 228 224 222 223 224 224 225 228 230 233 234 236 237 236 235 235 233 234 245 260 262 256 249 242 236 235 235 236 240 243 245 245 243 243 248 251 251 253 257 258 260 264 261 258 260 266 270 271 266 259 256 253 247 243 248 249 253 263 258 237 224 215 188 180 202 221 231 245 260 261 265 282 304 323 327 315 309 316
226 227 228 228 226 222 220 223 229 228 222 220 220 220 221 224 226 226 229 234 236 238 239 238 236 233 232 236 242 248 255 253 246 236 232 232 233 236 241 248 253 251 245 242 245 247 250 256 257 258 266 267 261 256 257 262 269 268 256 245 244 243 236 233 239 254 260 236 221 219 211 197 203 215 220 231 248 229 193 231 275 305 323 326 299 296 301
225 225 226 226 224 219 218 221 227 226 221 218 216 215 217 221 224 224 228 232 233 234 238 239 237 237 240 246 250 239 223 231 243 240 233 232 233 233 236 239 245 251 248 241 242 246 248 250 251 251 256 258 253 250 254 259 261 259 254 253 252 247 241 240 242 249 244 227 229 238 214 198 204 206 205 223 242 207 203 240 277 305 312 304 293 286 285
224 223 224 224 222 217 216 220 224 225 221 218 215 215 217 219 218 219 223 227 227 229 233 234 235 239 244 254 267 256 228 218 233 239 235 235 232 229 233 235 234 242 246 240 238 242 243 246 249 248 248 251 252 253 257 257 254 255 258 262 261 257 255 254 244 216 204 220 224 210 193 192 196 200 199 203 204 200 224 262 291 303 296 297 300 284 281
222 222 222 221 219 216 215 218 221 223 222 218 214 214 218 220 217 216 220 223 222 225 228 227 225 229 232 230 246 249 232 220 227 232 231 233 230 226 231 233 230 236 242 240 238 239 239 243 250 249 246 246 246 249 251 248 249 259 266 264 263 261 255 250 242 223 217 222 207 193 197 189 184 199 208 204 201 215 243 274 294 305 310 319 313 276 283
220 220 220 219 217 215 214 215 218 222 221 217 213 211 213 215 215 214 217 219 218 219 224 226 222 223 228 236 250 248 232 220 225 231 229 227 223 220 224 228 228 231 235 235 237 242 243 241 240 244 249 250 246 246 248 246 246 254 255 254 259 261 251 245 245 232 214 205 189 193 204 197 196 216 231 229 227 240 261 276 294 332 352 340 273 260 271
218 217 216 214 214 214 212 212 217 222 221 218 215 212 212 212 213 214 216 216 215 215 218 220 222 224 228 237 247 244 230 222 223 226 226 226 223 219 220 227 230 229 230 232 235 240 244 242 238 241 247 248 241 241 244 244 243 242 245 253 261 267 266 260 248 221 205 202 198 203 212 216 224 240 254 249 242 255 272 268 249 249 243 243 247 252 260
215 213 211 210 211 212 211 210 214 220 221 218 215 212 212 213 214 216 217 216 217 218 216 215 217 220 226 237 238 227 224 230 230 224 221 224 226 225 224 229 232 228 225 231 237 238 238 238 238 241 241 239 241 247 250 249 241 231 235 254 262 263 267 265 247 228 218 216 219 225 228 230 240 252 251 235 242 261 269 246 232 232 236 244 252 254 254
212 210 208 208 210 211 209 208 213 220 222 220 216 213 212 213 215 218 220 219 219 220 219 218 216 211 214 233 233 214 204 224 228 224 224 223 222 225 229 236 240 237 233 233 237 240 243 242 238 241 245 242 243 247 245 239 234 228 228 237 245 250 260 264 253 241 230 219 227 236 228 221 236 248 236 229 248 266 266 258 259 263 260 258 259 258 256
209 206 204 204 206 207 205 204 210 218 219 218 217 216 214 213 216 220 222 221 222 222 220 221 219 211 209 222 222 207 202 225 221 218 225 224 222 227 234 238 242 243 240 240 240 241 248 253 248 247 250 250 250 252 247 235 232 235 236 239 246 255 262 260 250 241 220 201 208 218 213 218 238 248 238 244 261 268 268 273 276 275 270 266 266 267 269
205 202 200 200 203 206 204 201 204 210 213 213 213 213 212 212 215 220 222 223 224 225 222 222 221 214 212 217 215 209 217 235 229 225 231 229 227 234 237 235 239 242 242 248 249 244 244 249 249 249 250 248 247 250 250 247 249 251 249 250 256 263 261 245 229 222 212 207 215 223 224 233 249 253 252 263 272 275 286 292 287 278 278 280 275 269 268
201 197 196 198 203 206 203 199 199 204 209 210 207 204 208 213 214 215 220 225 227 227 225 224 222 219 217 220 220 219 224 229 230 240 248 243 238 243 242 238 241 246 247 248 249 247 248 251 251 252 252 247 239 235 236 244 254 257 255 255 256 254 243 229 222 223 225 228 232 233 232 239 251 258 267 278 271 260 275 285 282 285 295 299 291 273 266
194 193 196 200 203 204 201 198 200 203 205 206 202 197 201 213 214 209 212 222 226 227 228 226 224 223 222 221 221 223 226 224 221 231 252 249 238 236 239 240 242 248 254 253 250 251 256 256 253 252 253 253 252 249 246 243 240 243 255 259 252 235 226 230 231 233 235 232 226 224 228 240 257 267 280 290 278 265 268 275 280 286 289 286 285 278 269
195 196 199 202 203 201 198 197 201 202 198 199 202 199 198 206 210 206 208 215 220 223 228 229 224 223 225 225 224 226 230 228 223 223 236 244 238 232 234 242 242 240 246 251 254 257 259 255 252 253 256 259 260 261 259 250 238 237 250 254 239 218 220 231 234 235 232 220 213 223 233 243 264 275 284 289 286 284 284 283 281 278 272 272 276 273 264
193 193 193 193 195 197 195 195 199 198 192 193 200 200 199 203 207 207 210 215 214 213 221 228 224 220 218 219 221 223 226 228 226 223 227 237 241 238 235 239 243 243 245 247 249 251 254 255 255 256 258 261 262 261 261 257 248 242 242 237 221 211 221 231 230 227 223 214 213 229 244 252 270 282 287 287 287 287 284 278 275 272 269 269 273 272 269
184 183 183 185 190 193 191 192 196 197 194 195 199 199 199 202 204 203 209 215 215 210 210 216 217 216 215 213 210 214 221 225 226 225 222 224 232 233 228 229 238 244 248 250 249 248 250 253 252 250 251 257 261 261 260 258 249 239 230 220 209 209 218 226 225 219 215 215 220 232 244 255 271 283 288 292 294 291 284 276 271 267 263 260 262 270 275
180 180 180 184 188 189 188 191 196 197 196 197 200 202 202 203 203 203 208 214 215 212 213 213 208 206 210 213 209 208 214 222 228 229 223 217 223 227 224 226 235 240 243 245 246 247 249 248 247 251 254 256 257 259 257 252 243 232 217 204 203 211 215 219 221 216 211 213 221 231 245 259 270 280 288 293 295 292 287 282 275 265 259 258 261 266 273
182 181 180 183 188 189 187 189 195 197 197 198 201 203 204 206 209 209 207 207 209 214 220 221 213 203 199 205 208 208 210 217 225 227 221 216 223 228 223 221 229 235 236 237 238 242 248 248 249 256 262 261 259 256 248 240 241 235 215 195 194 207 213 211 212 211 208 213 224 235 248 259 267 280 290 296 299 299 295 292 286 276 269 268 269 270 276
184 182 181 184 190 193 193 193 194 194 197 202 206 207 207 212 218 218 211 207 210 211 211 214 213 206 200 200 202 207 213 215 217 219 217 215 223 230 226 225 231 233 232 237 241 242 243 245 248 257 265 268 265 257 241 228 238 243 220 193 186 198 209 207 206 207 209 217 232 244 253 261 273 288 298 303 308 310 308 305 299 288 279 277 278 279 283
184 183 184 187 192 195 195 195 192 192 197 207 216 218 215 216 220 224 225 223 218 212 207 207 207 206 206 206 204 205 213 216 216 218 216 212 217 226 228 230 236 236 235 241 245 241 239 244 251 260 266 262 255 250 238 225 234 244 223 196 186 195 207 205 206 212 217 225 240 252 256 263 278 295 303 305 306 309 313 316 315 304 294 294 296 295 293
187 188 188 191 193 193 193 194 195 195 197 203 218 225 220 215 214 218 222 223 219 213 209 207 203 200 204 210 208 206 214 218 216 216 217 215 217 222 225 229 238 240 240 243 246 246 249 256 262 267 265 255 250 252 245 234 238 243 225 201 188 192 205 209 212 220 225 233 247 257 261 270 283 294 300 302 303 306 312 314 311 308 307 309 311 309 304
191 192 191 191 188 186 190 197 203 202 199 204 218 224 218 215 218 216 212 214 220 215 200 193 191 192 202 210 209 211 221 222 216 212 218 221 221 224 231 239 246 245 239 241 248 255 261 264 264 262 257 251 253 259 252 240 242 246 227 203 187 186 203 214 219 227 235 243 251 257 265 278 289 295 301 303 302 303 306 307 307 308 307 303 301 303 304
196 196 192 186 181 179 184 191 197 200 205 215 225 224 215 217 226 225 214 209 216 218 199 184 183 188 200 207 208 212 222 221 215 216 224 226 225 228 234 240 246 247 247 249 255 260 262 258 255 256 258 258 261 262 255 246 247 244 226 203 185 185 203 214 221 233 242 245 250 260 272 283 291 296 299 298 297 300 301 301 305 311 309 303 300 302 300
198 196 191 184 179 179 181 183 185 191 200 211 221 223 217 212 215 222 220 214 211 215 215 207 199 200 205 209 208 210 216 217 217 223 228 229 228 233 240 244 247 250 253 255 256 259 261 259 255 256 262 268 269 265 257 250 243 232 216 196 181 189 206 216 226 235 237 238 247 264 275 281 286 291 292 293 299 301 293 284 293 304 304 304 314 315 295
Height
3152 3151 3149 3148 3147 3145 3143 3141 3139 3138 3138 3137 3137 3137 3137 3137 3137 3138 3137 3137 3137 3136 3136 3137 3136 3136 3136 3136 3135 3135 3135 3135 3134 3134 3134 3133 3133 3133 3133 3133 3133 3132 3129 3129 3130 3131 3132 3133 3132 3132 3133 3133 3133 3133 3135 3138 3139 3140 3141 3143 3145 3145 3145 3144 3142 3143 3145 3146 3148 3149 3150 3150 3149 3149 3150 3150 3150 3151 3151 3152 3153 3154 3156 3157 3161 3165 3166
3150 3149 3148 3147 3146 3144 3143 3141 3139 3138 3137 3137 3136 3137 3137 3136 3137 3137 3136 3136 3136 3136 3136 3136 3136 3136 3136 3135 3135 3134 3134 3134 3133 3133 3132 3132 3132 3132 3132 3132 3132 3131 3128 3128 3129 3128 3130 3131 3130 3131 3132 3131 3131 3132 3135 3138 3139 3140 3140 3141 3143 3143 3144 3144 3144 3144 3144 3145 3147 3149 3151 3151 3150 3150 3151 3151 3152 3152 3152 3153 3153 3154 3156 3156 3159 3163 3165
3149 3148 3147 3146 3145 3144 3143 3141 3139 3138 3137 3136 3136 3136 3136 3136 3137 3137 3136 3135 3135 3135 3135 3135 3136 3135 3133 3133 3132 3132 3132 3131 3131 3132 3132 3131 3131 3131 3131 3131 3130 3129 3128 3128 3128 3128 3129 3130 3130 3130 3130 3131 3131 3133 3136 3137 3138 3139 3140 3141 3143 3143 3143 3144 3145 3144 3143 3145 3149 3152 3152 3152 3151 3151 3150 3150 3151 3153 3152 3152 3153 3155 3156 3156 3157 3160 3162
3147 3147 3146 3145 3144 3143 3142 3141 3139 3138 3136 3136 3136 3135 3135 3136 3136 3135 3135 3135 3135 3134 3135 3135 3135 3133 3132 3132 3131 3130 3130 3131 3130 3131 3131 3130 3130 3130 3130 3129 3129 3129 3128 3127 3127 3127 3128 3129 3130 3130 3130 3130 3131 3133 3135 3137 3138 3138 3139 3141 3142 3142 3142 3143 3145 3145 3145 3147 3152 3154 3154 3153 3153 3153 3152 3150 3151 3152 3151 3151 3153 3155 3155 3156 3158 3158 3159
3145 3145 3145 3144 3143 3142 3141 3140 3139 3138 3136 3135 3135 3135 3134 3135 3135 3133 3133 3134 3133 3134 3135 3135 3133 3131 3131 3132 3131 3131 3132 3132 3130 3129 3130 3130 3129 3129 3129 3129 3129 3129 3128 3126 3125 3126 3127 3128 3129 3130 3129 3129 3130 3132 3134 3137 3137 3137 3139 3141 3141 3141 3141 3141 3143 3146 3148 3149 3152 3155 3156 3154 3154 3154 3153 3151 3151 3150 3149 3150 3152 3153 3153 3155 3157 3157 3157
3143 3143 3143 3142 3142 3141 3140 3139 3138 3137 3136 3135 3135 3134 3133 3133 3133 3133 3132 3132 3131 3132 3132 3132 3132 3131 3131 3131 3131 3132 3133 3132 3131 3129 3129 3129 3129 3129 3129 3129 3128 3129 3129 3128 3126 3126 3127 3128 3129 3129 3129 3129 3130 3131 3133 3135 3136 3137 3139 3141 3141 3141 3141 3142 3143 3146 3148 3150 3152 3154 3155 3154 3153 3153 3152 3151 3150 3149 3148 3149 3150 3151 3151 3153 3155 3155 3155
3141 3141 3141 3141 3140 3140 3139 3138 3137 3136 3135 3134 3133 3133 3132 3132 3131 3132 3132 3131 3131 3131 3132 3132 3132 3132 3131 3130 3129 3131 3132 3132 3132 3130 3129 3128 3128 3128 3128 3128 3128 3128 3129 3129 3128 3128 3128 3128 3129 3130 3130 3129 3130 3131 3133 3134 3135 3137 3139 3141 3142 3142 3141 3142 3145 3146 3148 3150 3151 3152 3152 3152 3152 3151 3150 3150 3149 3148 3148 3148 3149 3151 3151 3151 3153 3154 3155
3139 3139 3139 3139 3139 3138 3138 3137 3136 3135 3134 3133 3132 3131 3131 3130 3130 3131 3131 3131 3131 3132 3132 3133 3132 3131 3131 3131 3129 3130 3131 3132 3131 3130 3129 3128 3128 3128 3129 3128 3127 3128 3128 3128 3129 3129 3129 3130 3130 3130 3131 3131 3131 3131 3132 3133 3134 3137 3139 3140 3141 3142 3141 3142 3145 3147 3148 3149 3150 3150 3151 3151 3150 3149 3148 3148 3148 3148 3148 3148 3149 3150 3151 3151 3152 3153 3154
3136 3136 3137 3137 3137 3136 3136 3136 3135 3134 3133 3132 3131 3130 3130 3129 3129 3130 3130 3130 3131 3131 3132 3132 3131 3130 3131 3132 3131 3130 3130 3130 3130 3129 3128 3128 3127 3128 3129 3128 3126 3126 3127 3129 3129 3129 3131 3132 3132 3132 3132 3133 3132 3132 3132 3133 3134 3136 3138 3139 3140 3141 3142 3143 3145 3146 3146 3148 3149 3149 3149 3149 3148 3148 3147 3146 3147 3147 3148 3148 3149 3149 3150 3151 3152 3152 3154
3133 3134 3134 3135 3135 3135 3134 3134 3134 3133 3132 3131 3130 3129 3129 3128 3128 3129 3129 3128 3129 3130 3130 3131 3131 3131 3131 3131 3131 3130 3130 3130 3131 3130 3130 3128 3127 3128 3129 3128 3126 3127 3128 3129 3129 3130 3132 3133 3133 3133 3133 3134 3134 3134 3134 3133 3134 3135 3137 3138 3139 3140 3142 3144 3145 3145 3145 3146 3148 3149 3149 3147 3146 3147 3147 3147 3146 3147 3148 3148 3148 3149 3150 3150 3151 3152 3153
3130 3131 3132 3132 3133 3133 3133 3132 3132 3132 3131 3130 3129 3128 3128 3127 3127 3127 3127 3127 3127 3130 3130 3129 3130 3131 3130 3129 3129 3130 3130 3132 3132 3131 3130 3128 3125 3125 3128 3129 3129 3128 3129 3129 3130 3130 3132 3133 3133 3133 3134 3134 3134 3134 3134 3134 3134 3136 3137 3138 3139 3140 3143 3144 3144 3145 3144 3145 3147 3148 3147 3146 3146 3148 3149 3148 3147 3148 3148 3148 3149 3149 3149 3149 3150 3151 3152
3127 3128 3129 3130 3130 3131 3131 3131 3131 3130 3130 3128 3128 3127 3126 3126 3126 3126 3126 3125 3126 3128 3129 3128 3129 3130 3129 3128 3127 3128 3130 3131 3131 3130 3129 3128 3126 3124 3127 3129 3129 3130 3129 3130 3131 3131 3131 3132 3133 3133 3133 3133 3134 3134 3134 3135 3135 3136 3137 3138 3139 3141 3143 3144 3144 3144 3144 3144 3145 3145 3145 3145 3148 3149 3149 3148 3148 3149 3149 3149 3149 3149 3149 3150 3151 3151 3152
3124 3125 3126 3127 3128 3128 3129 3129 3129 3129 3128 3127 3127 3126 3125 3125 3125 3125 3124 3124 3124 3126 3127 3128 3129 3129 3128 3128 3127 3127 3130 3131 3129 3127 3128 3130 3129 3127 3128 3130 3130 3130 3131 3130 3130 3130 3131 3132 3132 3132 3133 3133 3133 3133 3133 3134 3135 3136 3137 3138 3139 3140 3141 3142 3143 3143 3144 3144 3144 3144 3144 3145 3147 3148 3148 3149 3149 3149 3149 3149 3149 3149 3150 3150 3150 3151 3152
3120 3121 3123 3124 3125 3126 3126 3127 3127 3127 3127 3126 3125 3125 3124 3124 3125 3124 3124 3123 3123 3124 3126 3127 3128 3129 3129 3130 3129 3128 3129 3129 3127 3125 3125 3127 3128 3128 3128 3130 3131 3131 3131 3131 3130 3130 3131 3132 3132 3132 3132 3133 3133 3133 3132 3133 3133 3135 3136 3137 3138 3139 3140 3141 3141 3142 3144 3144 3143 3143 3145 3146 3146 3147 3147 3148 3148 3149 3149 3149 3149 3149 3149 3149 3150 3150 3152
3116 3118 3119 3121 3122 3123 3124 3124 3125 3125 3125 3125 3124 3124 3123 3123 3124 3124 3123 3123 3122 3123 3125 3128 3129 3129 3130 3130 3129 3128 3127 3127 3127 3125 3123 3124 3126 3127 3127 3129 3131 3131 3132 3131 3130 3130 3131 3132 3132 3132 3133 3134 3133 3132 3132 3132 3132 3134 3136 3136 3137 3138 3139 3140 3140 3141 3143 3144 3142 3142 3145 3147 3148 3147 3147 3147 3147 3148 3149 3149 3148 3148 3148 3149 3150 3151 3152
3112 3114 3116 3117 3119 3120 3121 3122 3122 3123 3123 3123 3123 3122 3122 3122 3123 3123 3122 3122 3123 3123 3124 3126 3128 3128 3129 3129 3129 3127 3127 3127 3126 3124 3124 3125 3127 3127 3127 3127 3129 3131 3132 3131 3130 3131 3131 3131 3131 3132 3135 3135 3134 3133 3134 3133 3132 3133 3135 3136 3137 3137 3138 3139 3139 3140 3142 3142 3140 3141 3143 3144 3146 3147 3146 3146 3146 3148 3149 3148 3146 3146 3147 3149 3150 3150 3151
3108 3110 3112 3114 3115 3117 3118 3119 3120 3120 3121 3122 3122 3121 3121 3121 3121 3121 3122 3122 3122 3122 3124 3124 3125 3126 3127 3128 3128 3127 3127 3127 3127 3126 3126 3127 3128 3128 3127 3127 3128 3130 3131 3131 3130 3130 3131 3131 3131 3133 3135 3135 3134 3134 3134 3134 3133 3133 3134 3135 3135 3136 3136 3137 3137 3138 3139 3140 3139 3139 3140 3140 3142 3144 3145 3146 3146 3147 3148 3146 3144 3145 3146 3147 3148 3149 3150
3103 3106 3108 3110 3112 3113 3115 3116 3117 3118 3118 3119 3120 3120 3119 3119 3120 3120 3121 3121 3120 3121 3122 3122 3122 3125 3126 3126 3127 3127 3127 3127 3127 3127 3127 3128 3129 3129 3129 3128 3128 3129 3129 3129 3129 3130 3130 3131 3132 3133 3133 3134 3134 3133 3133 3134 3134 3134 3135 3135 3136 3136 3137 3137 3136 3136 3137 3138 3137 3137 3137 3138 3141 3143 3144 3145 3146 3146 3145 3144 3143 3144 3145 3146 3147 3147 3147
3099 3102 3104 3106 3108 3110 3112 3113 3114 3116 3116 3117 3118 3118 3118 3118 3118 3118 3119 3119 3119 3119 3120 3120 3121 3123 3124 3124 3125 3127 3127 3126 3126 3126 3128 3129 3128 3128 3129 3129 3129 3129 3129 3129 3130 3130 3130 3130 3131 3132 3132 3132 3132 3132 3132 3133 3133 3134 3135 3135 3136 3137 3137 3137 3137 3137 3138 3138 3138 3137 3137 3138 3140 3141 3142 3143 3144 3144 3144 3143 3142 3143 3144 3145 3146 3146 3145
3095 3098 3100 3103 3105 3106 3108 3110 3111 3113 3114 3114 3115 3116 3116 3116 3116 3117 3117 3117 3117 3117 3119 3120 3119 3120 3120 3121 3123 3124 3124 3125 3126 3126 3127 3127 3127 3127 3128 3128 3129 3129 3129 3129 3129 3130 3131 3131 3131 3132 3131 3131 3130 3130 3131 3132 3133 3133 3133 3133 3134 3135 3136 3136 3137 3138 3138 3138 3138 3138 3139 3139 3140 3139 3140 3141 3142 3143 3143 3143 3142 3143 3144 3144 3144 3144 3145
3092 3094 3096 3098 3101 3103 3105 3106 3108 3110 3111 3112 3113 3113 3114 3114 3114 3115 3115 3115 3115 3116 3117 3117 3116 3117 3118 3119 3120 3121 3122 3123 3124 3124 3125 3125 3125 3126 3127 3127 3127 3128 3128 3129 3130 3131 3131 3131 3131 3132 3131 3131 3130 3130 3131 3132 3132 3132 3132 3132 3133 3133 3133 3135 3137 3137 3138 3138 3137 3138 3139 3140 3139 3138 3138 3140 3142 3142 3143 3143 3142 3142 3142 3143 3143 3143 3144
3088 3090 3092 3094 3097 3099 3101 3103 3105 3107 3108 3109 3110 3111 3112 3112 3113 3113 3113 3113 3113 3114 3115 3115 3115 3116 3117 3118 3118 3119 3120 3121 3122 3122 3123 3123 3124 3125 3125 3126 3127 3127 3128 3129 3130 3130 3131 3131 3131 3131 3131 3130 3131 3131 3131 3133 3132 3131 3131 3132 3132 3132 3132 3135 3136 3136 3137 3137 3137 3138 3138 3138 3139 3139 3139 3139 3140 3141 3142 3143 3141 3141 3141 3141 3141 3142 3142
3084 3086 3088 3091 3093 3095 3098 3100 3102 3104 3105 3106 3107 3108 3110 3110 3111 3111 3111 3112 3112 3112 3113 3114 3115 3116 3117 3117 3118 3118 3119 3120 3120 3121 3122 3122 3123 3125 3126 3125 3126 3127 3127 3127 3127 3129 3130 3130 3130 3130 3131 3130 3130 3130 3132 3133 3133 3132 3131 3132 3132 3132 3133 3135 3135 3135 3135 3136 3136 3137 3137 3137 3139 3139 3140 3140 3140 3140 3142 3142 3141 3140 3140 3140 3140 3140 3139
3081 3083 3085 3088 3090 3092 3094 3096 3098 3100 3102 3103 3104 3106 3107 3108 3109 3109 3110 3110 3110 3110 3111 3112 3114 3115 3117 3117 3116 3117 3118 3119 3119 3120 3121 3122 3122 3124 3125 3124 3124 3125 3125 3125 3126 3128 3129 3129 3130 3130 3130 3130 3130 3130 3132 3133 3133 3132 3132 3132 3131 3131 3132 3133 3134 3133 3134 3135 3135 3135 3137 3137 3138 3138 3138 3139 3140 3140 3140 3140 3139 3139 3139 3139 3139 3138 3138
3078 3080 3082 3085 3087 3089 3091 3093 3095 3097 3099 3100 3102 3103 3105 3106 3107 3107 3108 3108 3109 3109 3110 3111 3112 3114 3116 3116 3116 3117 3118 3118 3118 3118 3120 3120 3121 3121 3122 3122 3122 3123 3123 3124 3125 3127 3128 3129 3129 3129 3129 3129 3129 3130 3132 3132 3132 3132 3132 3132 3131 3130 3130 3132 3132 3131 3132 3134 3134 3135 3136 3136 3136 3136 3136 3137 3138 3139 3139 3139 3138 3138 3138 3138 3137 3137 3136
3075 3077 3079 3081 3083 3086 3088 3090 3092 3094 3096 3097 3099 3100 3102 3104 3105 3105 3106 3107 3107 3108 3108 3109 3110 3111 3112 3113 3114 3115 3116 3116 3115 3117 3118 3118 3119 3119 3120 3121 3121 3122 3123 3124 3125 3126 3127 3128 3128 3128 3128 3128 3128 3129 3130 3130 3130 3131 3131 3131 3131 3130 3130 3131 3131 3130 3131 3132 3132 3133 3134 3134 3135 3136 3135 3135 3137 3138 3138 3138 3137 3137 3137 3136 3136 3135 3134
3072 3074 3076 3078 3080 3083 3085 3087 3089 3091 3093 3094 3096 3098 3100 3101 3103 3104 3104 3105 3106 3106 3106 3106 3107 3107 3108 3109 3110 3111 3112 3113 3113 3115 3115 3116 3117 3118 3119 3120 3121 3121 3122 3123 3124 3125 3126 3126 3126 3127 3128 3127 3127 3127 3128 3129 3129 3129 3129 3130 3130 3130 3130 3130 3129 3128 3129 3130 3130 3131 3132 3132 3134 3135 3134 3134 3135 3136 3136 3136 3135 3135 3135 3134 3134 3133 3132
3068 3070 3072 3074 3077 3080 3082 3084 3086 3088 3090 3092 3094 3096 3098 3099 3100 3101 3102 3103 3104 3104 3104 3104 3105 3106 3107 3108 3109 3109 3110 3111 3112 3113 3114 3115 3116 3117 3118 3118 3119 3120 3121 3122 3123 3124 3124 3125 3125 3126 3126 3126 3125 3126 3127 3127 3128 3127 3127 3128 3128 3129 3129 3128 3126 3126 3127 3128 3128 3129 3130 3130 3132 3133 3132 3132 3133 3134 3133 3133 3133 3133 3133 3132 3131 3131 3131
3064 3067 3069 3071 3074 3077 3079 3081 3083 3085 3087 3089 3091 3093 3096 3097 3098 3099 3100 3101 3102 3102 3103 3103 3104 3105 3106 3106 3107 3108 3109 3110 3110 3111 3113 3114 3115 3115 3116 3116 3117 3118 3119 3121 3121 3122 3123 3123 3123 3124 3124 3123 3124 3125 3125 3126 3126 3125 3125 3126 3126 3126 3126 3125 3125 3126 3127 3127 3127 3128 3129 3129 3130 3131 3131 3131 3132 3132 3131 3131 3130 3130 3131 3130 3129 3128 3129
3061 3063 3066 3069 3072 3074 3077 3079 3080 3082 3084 3086 3088 3091 3093 3094 3095 3096 3098 3099 3100 3101 3101 3102 3102 3103 3103 3103 3104 3106 3108 3109 3109 3110 3111 3112 3113 3114 3115 3115 3115 3116 3116 3118 3119 3120 3121 3121 3121 3122 3122 3121 3122 3123 3123 3124 3124 3122 3122 3123 3123 3123 3123 3124 3124 3125 3126 3126 3126 3127 3128 3129 3129 3130 3130 3130 3130 3130 3130 3129 3128 3129 3129 3129 3127 3127 3127
3057 3060 3063 3066 3069 3072 3074 3076 3077 3079 3081 3083 3085 3088 3090 3091 3093 3095 3097 3097 3098 3099 3100 3100 3101 3101 3102 3102 3103 3104 3106 3108 3109 3109 3110 3111 3112 3113 3113 3114 3114 3114 3114 3116 3117 3117 3118 3119 3119 3120 3121 3119 3119 3121 3121 3122 3122 3120 3118 3119 3120 3121 3121 3122 3123 3125 3125 3124 3125 3126 3127 3128 3128 3128 3129 3128 3128 3129 3129 3127 3127 3128 3128 3127 3127 3125 3125
3055 3058 3060 3063 3066 3069 3071 3073 3075 3077 3078 3080 3083 3086 3088 3090 3092 3093 3094 3095 3097 3098 3099 3099 3100 3101 3101 3102 3103 3103 3104 3106 3107 3108 3108 3109 3110 3111 3111 3112 3113 3113 3113 3114 3115 3115 3116 3116 3117 3118 3118 3117 3117 3119 3119 3119 3120 3118 3116 3117 3118 3118 3119 3119 3121 3123 3124 3123 3124 3126 3126 3126 3127 3127 3127 3127 3127 3127 3126 3125 3126 3127 3126 3126 3126 3125 3123
3052 3055 3058 3060 3063 3066 3068 3070 3073 3075 3076 3078 3082 3084 3086 3088 3090 3091 3092 3094 3095 3096 3097 3098 3099 3099 3100 3101 3103 3103 3104 3105 3106 3107 3107 3108 3108 3109 3110 3111 3111 3112 3112 3112 3113 3113 3114 3115 3115 3115 3114 3114 3116 3117 3117 3117 3117 3116 3115 3114 3115 3116 3117 3117 3118 3120 3122 3123 3125 3126 3125 3125 3125 3125 3125 3125 3125 3125 3125 3124 3124 3125 3124 3125 3125 3124 3122
3050 3053 3055 3058 3060 3063 3065 3068 3071 3072 3074 3076 3079 3081 3082 3085 3088 3089 3091 3092 3093 3095 3096 3097 3097 3098 3099 3100 3102 3102 3102 3104 3105 3105 3106 3106 3107 3108 3109 3109 3110 3110 3110 3110 3111 3112 3112 3113 3113 3113 3112 3112 3113 3114 3113 3114 3115 3114 3112 3111 3112 3113 3114 3114 3115 3118 3120 3122 3123 3123 3122 3122 3122 3122 3123 3124 3124 3123 3123 3123 3123 3124 3124 3125 3125 3123 3121
3048 3050 3053 3055 3058 3060 3063 3066 3069 3071 3073 3074 3076 3078 3080 3083 3085 3087 3089 3090 3091 3093 3094 3095 3096 3097 3098 3099 3101 3101 3101 3103 3104 3104 3105 3105 3105 3106 3108 3108 3108 3108 3109 3109 3110 3110 3111 3111 3111 3111 3111 3111 3111 3111 3111 3111 3113 3112 3111 3109 3110 3111 3112 3112 3113 3116 3119 3120 3120 3120 3119 3119 3119 3120 3121 3122 3121 3121 3122 3122 3123 3125 3125 3124 3123 3122 3121
3046 3048 3051 3053 3056 3058 3061 3064 3067 3069 3070 3071 3073 3076 3079 3081 3083 3085 3087 3088 3089 3090 3091 3093 3094 3095 3097 3099 3100 3099 3099 3101 3102 3102 3103 3104 3104 3105 3106 3107 3106 3106 3106 3107 3108 3109 3109 3109 3109 3109 3109 3109 3109 3109 3109 3110 3110 3110 3109 3108 3109 3110 3111 3111 3112 3114 3116 3117 3117 3117 3117 3117 3118 3118 3119 3119 3119 3119 3120 3121 3121 3123 3122 3121 3120 3121 3120
3045 3047 3049 3052 3054 3057 3059 3062 3065 3067 3068 3070 3072 3075 3078 3080 3081 3083 3084 3086 3087 3088 3089 3090 3091 3092 3095 3096 3097 3096 3097 3099 3101 3101 3102 3102 3102 3103 3105 3105 3104 3104 3105 3106 3107 3107 3107 3107 3107 3107 3107 3107 3107 3108 3108 3108 3108 3108 3108 3108 3108 3109 3109 3110 3111 3112 3113 3115 3115 3115 3115 3116 3116 3116 3117 3117 3117 3117 3118 3118 3118 3119 3119 3118 3118 3118 3118
3043 3045 3048 3050 3052 3055 3057 3060 3063 3065 3067 3069 3072 3073 3075 3078 3079 3080 3082 3084 3085 3086 3087 3088 3088 3090 3092 3093 3094 3095 3097 3098 3099 3100 3101 3100 3101 3101 3102 3102 3102 3102 3103 3104 3105 3105 3105 3105 3105 3105 3105 3105 3106 3106 3106 3106 3106 3106 3106 3107 3107 3107 3108 3109 3110 3110 3112 3113 3113 3113 3113 3113 3114 3115 3115 3115 3115 3115 3115 3115 3115 3115 3115 3115 3115 3115 3115
3041 3044 3046 3048 3050 3052 3054 3057 3060 3063 3065 3067 3069 3071 3073 3075 3077 3078 3079 3081 3082 3083 3084 3085 3086 3088 3090 3090 3092 3094 3095 3096 3097 3098 3098 3098 3099 3100 3100 3100 3100 3100 3101 3102 3102 3103 3103 3103 3103 3103 3103 3103 3103 3103 3103 3104 3105 3105 3105 3106 3106 3106 3107 3108 3109 3109 3110 3111 3111 3111 3111 3112 3112 3113 3114 3114 3114 3114 3113 3113 3113 3112 3112 3112 3112 3113 3112
3040 3042 3044 3045 3047 3049 3052 3056 3058 3061 3063 3065 3067 3070 3072 3072 3074 3076 3078 3079 3079 3080 3081 3082 3084 3086 3088 3089 3091 3093 3094 3095 3096 3097 3097 3097 3097 3097 3098 3098 3098 3099 3099 3100 3100 3100 3101 3101 3101 3101 3100 3100 3100 3100 3100 3102 3103 3104 3103 3104 3104 3105 3106 3106 3107 3108 3108 3109 3109 3110 3110 3111 3111 3112 3112 3112 3112 3112 3112 3111 3111 3110 3110 3110 3110 3111 3110
3038 3039 3040 3042 3045 3048 3052 3055 3058 3060 3062 3064 3066 3068 3069 3070 3072 3074 3076 3076 3077 3077 3079 3080 3082 3084 3085 3086 3088 3091 3091 3092 3094 3096 3096 3095 3095 3095 3096 3097 3097 3098 3098 3098 3098 3099 3099 3098 3099 3099 3098 3098 3099 3099 3099 3099 3100 3101 3101 3102 3103 3104 3104 3105 3105 3106 3106 3107 3108 3108 3109 3110 3110 3110 3110 3110 3111 3110 3110 3110 3109 3109 3109 3109 3109 3109 3108
3035 3037 3039 3043 3046 3049 3052 3054 3056 3059 3061 3063 3064 3065 3067 3068 3070 3071 3072 3073 3075 3076 3077 3078 3080 3082 3084 3085 3086 3088 3090 3091 3092 3094 3094 3093 3093 3094 3095 3096 3096 3096 3096 3095 3096 3097 3097 3096 3096 3096 3096 3096 3097 3097 3097 3097 3097 3098 3098 3099 3100 3102 3102 3103 3103 3104 3105 3106 3107 3107 3108 3108 3108 3108 3109 3109 3109 3108 3108 3108 3108 3108 3108 3107 3107 3107 3107
3035 3038 3040 3044 3046 3048 3050 3053 3055 3057 3059 3060 3061 3063 3064 3065 3067 3068 3069 3070 3072 3075 3076 3077 3078 3080 3082 3084 3085 3087 3088 3088 3089 3090 3091 3091 3092 3093 3094 3094 3094 3094 3093 3093 3094 3094 3095 3095 3095 3094 3094 3094 3094 3094 3094 3095 3095 3095 3096 3097 3098 3099 3100 3101 3101 3102 3103 3104 3105 3106 3106 3107 3107 3107 3107 3107 3107 3107 3107 3106 3106 3106 3106 3106 3106 3105 3105
3034 3037 3039 3042 3044 3046 3048 3051 3053 3054 3056 3057 3058 3060 3062 3063 3065 3066 3068 3069 3070 3072 3074 3076 3077 3079 3080 3082 3083 3085 3086 3086 3086 3088 3089 3090 3091 3091 3092 3092 3091 3091 3091 3092 3092 3092 3093 3093 3093 3091 3090 3090 3091 3090 3091 3092 3093 3093 3093 3094 3096 3097 3098 3099 3100 3101 3101 3102 3103 3104 3105 3105 3106 3106 3106 3105 3105 3105 3105 3104 3104 3104 3104 3104 3104 3104 3104
3033 3035 3037 3040 3041 3044 3046 3048 3050 3051 3053 3055 3057 3058 3060 3062 3064 3065 3067 3068 3069 3071 3073 3074 3075 3077 3079 3080 3081 3083 3084 3084 3084 3085 3087 3089 3089 3089 3090 3090 3089 3089 3090 3090 3090 3090 3090 3090 3090 3088 3087 3088 3088 3088 3088 3089 3090 3091 3091 3092 3094 3096 3097 3098 3098 3099 3100 3101 3102 3103 3103 3104 3104 3104 3104 3104 3103 3103 3102 3102 3102 3102 3102 3102 3102 3102 3102
3032 3034 3036 3038 3040 3042 3044 3045 3047 3049 3051 3054 3055 3057 3060 3062 3064 3065 3067 3068 3069 3070 3071 3072 3073 3075 3077 3079 3080 3081 3082 3083 3083 3083 3085 3087 3087 3087 3087 3088 3088 3088 3088 3088 3087 3087 3087 3087 3086 3085 3084 3085 3086 3086 3085 3086 3087 3089 3090 3090 3092 3094 3096 3096 3097 3098 3098 3099 3100 3101 3102 3103 3103 3103 3102 3102 3102 3101 3101 3100 3100 3100 3100 3100 3100 3100 3100
3031 3033 3035 3037 3039 3040 3042 3043 3046 3049 3052 3054 3055 3057 3059 3062 3064 3064 3065 3066 3067 3068 3068 3070 3072 3073 3074 3076 3078 3080 3081 3081 3082 3082 3083 3084 3084 3085 3085 3085 3085 3085 3085 3085 3084 3084 3084 3084 3083 3082 3082 3083 3084 3083 3083 3084 3086 3088 3089 3089 3090 3093 3095 3095 3095 3096 3097 3097 3099 3100 3100 3101 3101 3101 3101 3100 3100 3100 3099 3099 3098 3098 3098 3098 3098 3098 3098
3029 3032 3034 3035 3037 3038 3041 3043 3046 3049 3052 3054 3055 3057 3058 3060 3062 3064 3064 3064 3064 3065 3066 3068 3070 3072 3072 3074 3076 3078 3079 3080 3080 3080 3081 3082 3082 3082 3082 3082 3082 3082 3082 3082 3082 3082 3082 3081 3081 3080 3081 3081 3081 3080 3082 3084 3085 3087 3088 3087 3088 3090 3093 3094 3094 3095 3096 3096 3097 3098 3099 3099 3100 3100 3099 3099 3098 3098 3097 3097 3097 3096 3096 3096 3096 3097 3097
3028 3030 3031 3034 3036 3038 3041 3044 3046 3047 3049 3052 3054 3056 3057 3058 3061 3062 3062 3061 3061 3063 3065 3066 3068 3069 3071 3072 3074 3076 3076 3077 3078 3078 3079 3080 3080 3080 3079 3079 3079 3079 3079 3079 3079 3079 3079 3079 3079 3079 3079 3079 3078 3078 3081 3083 3083 3085 3086 3085 3084 3087 3091 3093 3093 3094 3094 3095 3096 3097 3097 3097 3098 3098 3098 3098 3097 3097 3096 3096 3096 3095 3095 3095 3095 3095 3095
3027 3029 3031 3033 3036 3038 3041 3043 3045 3047 3049 3051 3053 3055 3056 3058 3059 3060 3060 3059 3060 3061 3063 3064 3066 3068 3070 3071 3072 3073 3074 3074 3075 3076 3077 3077 3077 3077 3077 3077 3077 3077 3077 3077 3077 3076 3077 3078 3078 3077 3077 3077 3077 3078 3080 3081 3081 3083 3085 3083 3082 3085 3089 3091 3092 3093 3093 3094 3094 3095 3096 3096 3097 3097 3096 3096 3096 3095 3095 3095 3094 3094 3094 3093 3093 3093 3093
3026 3028 3031 3033 3036 3037 3039 3041 3044 3046 3048 3050 3052 3054 3055 3057 3058 3058 3058 3059 3060 3060 3061 3062 3065 3067 3069 3070 3071 3072 3072 3072 3073 3074 3074 3074 3075 3075 3075 3075 3075 3075 3074 3074 3075 3074 3075 3076 3077 3076 3076 3077 3077 3077 3078 3079 3080 3083 3084 3082 3081 3083 3087 3089 3090 3092 3092 3093 3093 3094 3094 3094 3095 3095 3095 3095 3094 3094 3094 3094 3093 3092 3092 3092 3092 3092 3092
3025 3028 3030 3033 3034 3036 3038 3040 3042 3044 3045 3048 3051 3052 3053 3054 3056 3056 3056 3057 3059 3060 3061 3063 3065 3066 3067 3068 3069 3070 3070 3071 3071 3072 3072 3072 3073 3073 3073 3073 3073 3073 3072 3072 3073 3073 3074 3075 3076 3076 3076 3077 3077 3077 3077 3078 3080 3082 3082 3081 3081 3083 3086 3088 3089 3090 3091 3092 3092 3093 3093 3093 3094 3094 3093 3094 3094 3093 3093 3093 3092 3092 3091 3091 3091 3091 3091